Waarnemingen

Advertentie
Mijn weer
Murcia, Spanje (8430): temperatuur & dauwpunt: 12.02.2019 20:00:00 - 18.02.2019 20:00:00 (CET)Murcia, Spanje (8430): windsnelheid: 12.02.2019 20:00:00 - 18.02.2019 20:00:00 (CET)Murcia, Spanje (8430): windrichting: 12.02.2019 20:00:00 - 18.02.2019 20:00:00 (CET)Murcia, Spanje (8430): luchtdruk: 12.02.2019 20:00:00 - 18.02.2019 20:00:00 (CET)Murcia, Spanje (8430): zicht: 12.02.2019 20:00:00 - 18.02.2019 20:00:00 (CET)Murcia, Spanje (8430): neerslag: 12.02.2019 20:00:00 - 18.02.2019 20:00:00 (CET)
Datum & Tijd tt [°C] td [°C] ff [km/u] ff [kn] dd ppp [hPa] vv [km] rr [mm]
18.02.2019 20:00:00 - - - - - - - -
18.02.2019 19:00:00 13,2 8,9 9 5 O 1019,8 20 -
18.02.2019 18:00:00 14,7 8,9 11 6 O 1019,2 20 0,0
18.02.2019 17:00:00 16,1 7,8 16 9 ONO 1019,1 20 0,0
18.02.2019 16:00:00 16,8 7,4 16 9 O 1019,4 20 -
18.02.2019 15:00:00 16,7 8,4 13 7 O 1019,8 20 0,0
18.02.2019 14:00:00 16,7 8,4 9 5 O 1020,4 19 0,0
18.02.2019 13:00:00 16,3 8,0 8 4 ONO 1021,4 18 -
18.02.2019 12:00:00 15,2 8,4 5 3 ZO 1022,1 16 0,0
18.02.2019 11:00:00 12,5 6,7 8 4 WNW 1022,3 16 0,0
18.02.2019 10:00:00 10,4 6,0 8 4 W 1022,5 15 -
18.02.2019 09:00:00 9,4 5,8 15 8 NW 1022,4 18 0,0
18.02.2019 08:00:00 9,1 5,6 13 7 NW 1022,0 19 0,0
18.02.2019 07:00:00 9,0 5,9 11 6 NW 1021,9 15 -
18.02.2019 06:00:00 8,8 6,4 9 5 NNW 1022,1 16 0,0
18.02.2019 05:00:00 8,8 7,1 5 3 NNW 1022,1 13 0,0
18.02.2019 04:00:00 8,6 6,9 5 3 NW 1022,7 11 -
18.02.2019 03:00:00 8,7 7,3 8 4 NW 1023,3 9 0,0
18.02.2019 02:00:00 9,1 7,2 2 1 WZW 1023,6 6 0,0
18.02.2019 01:00:00 10,3 8,2 2 1 W 1024,0 8 -
18.02.2019 00:00:00 10,4 8,7 5 3 NW 1024,1 8 0,0
17.02.2019 23:00:00 9,8 8,4 5 3 NNW 1024,4 8 0,0
17.02.2019 22:00:00 9,8 8,4 5 3 NNO 1024,2 8 -
17.02.2019 21:00:00 10,5 8,6 5 3 ONO 1024,1 10 0,0
17.02.2019 20:00:00 11,3 8,3 8 4 ONO 1023,9 14 0,0
17.02.2019 19:00:00 13,0 8,3 9 5 ONO 1023,3 10 -
17.02.2019 18:00:00 14,4 7,9 13 7 O 1023,2 20 0,0
17.02.2019 17:00:00 16,2 7,9 11 6 O 1023,2 20 0,0
17.02.2019 16:00:00 16,4 8,4 11 6 ONO 1023,7 15 -
17.02.2019 15:00:00 15,9 7,1 13 7 O 1024,3 19 0,0
17.02.2019 14:00:00 15,0 5,8 5 3 OZO 1025,5 10 0,0
17.02.2019 13:00:00 12,4 3,1 5 3 WZW 1026,7 15 -
17.02.2019 12:00:00 11,0 2,3 5 3 WNW 1027,2 19 0,0
17.02.2019 11:00:00 8,7 1,6 5 3 W 1027,6 19 0,0
17.02.2019 10:00:00 7,4 1,7 5 3 WNW 1027,8 10 -
17.02.2019 09:00:00 6,7 1,4 8 4 W 1027,6 20 0,0
17.02.2019 08:00:00 6,2 1,7 8 4 WNW 1027,1 20 0,0
17.02.2019 07:00:00 5,4 1,5 8 4 WZW 1027,1 10 -
17.02.2019 06:00:00 4,9 1,2 5 3 ZZW 1026,9 20 0,0
17.02.2019 05:00:00 5,4 1,1 4 2 ZZW 1026,9 20 0,0
17.02.2019 04:00:00 5,9 1,6 4 2 ZZW 1027,2 20 -
17.02.2019 03:00:00 6,5 1,8 8 4 NW 1027,5 20 0,0
17.02.2019 02:00:00 6,5 2,9 5 3 ZO 1027,7 18 0,0
17.02.2019 01:00:00 7,5 3,5 4 2 Z 1027,9 15 -
17.02.2019 00:00:00 8,0 4,0 5 3 WNW 1028,1 19 0,0
16.02.2019 23:00:00 8,5 5,2 8 4 WNW 1028,2 16 0,0
16.02.2019 22:00:00 8,4 5,0 5 3 N 1027,9 20 -
16.02.2019 21:00:00 10,1 5,1 2 1 NO 1027,8 19 0,0
16.02.2019 20:00:00 12,1 5,3 9 5 O 1027,4 20 0,0
16.02.2019 19:00:00 13,2 4,3 11 6 O 1026,9 20 -
16.02.2019 18:00:00 15,2 4,3 13 7 O 1026,5 20 0,0
16.02.2019 17:00:00 16,3 3,0 16 9 O 1026,5 20 0,0
16.02.2019 16:00:00 16,9 2,5 16 9 O 1026,9 30 -
16.02.2019 15:00:00 17,3 3,9 13 7 ONO 1027,5 20 0,0
16.02.2019 14:00:00 16,3 6,4 13 7 ONO 1028,4 25 0,0
16.02.2019 13:00:00 14,5 6,6 15 8 O 1029,4 15 -
16.02.2019 12:00:00 13,6 6,2 16 9 NO 1030,1 20 0,0
16.02.2019 11:00:00 12,1 6,2 8 4 W 1030,0 16 0,0
16.02.2019 10:00:00 9,8 5,6 5 3 NW 1030,0 15 -
16.02.2019 09:00:00 7,9 5,2 9 5 NW 1029,5 11 0,0
16.02.2019 08:00:00 8,3 5,6 15 8 NW 1028,8 12 0,0
16.02.2019 07:00:00 8,6 5,9 13 7 NW 1028,3 10 -
16.02.2019 06:00:00 9,5 6,6 11 6 NNW 1028,1 14 0,0
16.02.2019 05:00:00 9,7 7,3 2 1 OZO 1028,1 16 0,0
16.02.2019 04:00:00 9,6 7,2 8 4 NW 1028,1 16 -
16.02.2019 03:00:00 9,8 7,4 9 5 NW 1028,3 15 0,0
16.02.2019 02:00:00 11,3 8,0 5 3 N 1028,5 19 0,0
16.02.2019 01:00:00 11,8 8,1 9 5 NNO 1028,7 20 -
16.02.2019 00:00:00 12,0 8,7 11 6 NO 1029,0 20 0,0
15.02.2019 23:00:00 12,4 8,9 9 5 ONO 1029,2 20 0,0
15.02.2019 22:00:00 12,6 8,9 11 6 ONO 1029,0 20 -
15.02.2019 21:00:00 12,8 8,7 11 6 ONO 1028,7 20 0,0
15.02.2019 20:00:00 12,9 8,4 13 7 ONO 1028,4 20 0,0
15.02.2019 19:00:00 13,3 8,6 11 6 O 1028,0 20 -
15.02.2019 18:00:00 14,3 8,3 13 7 O 1027,6 20 0,0
15.02.2019 17:00:00 15,5 8,0 13 7 O 1027,5 20 0,0
15.02.2019 16:00:00 16,4 7,9 15 8 O 1027,5 25 -
15.02.2019 15:00:00 16,5 7,7 11 6 O 1028,0 20 0,0
15.02.2019 14:00:00 15,5 7,3 5 3 ONO 1029,0 20 0,0
15.02.2019 13:00:00 13,9 7,0 8 4 ONO 1030,3 20 -
15.02.2019 12:00:00 13,5 6,6 5 3 NNO 1031,2 20 0,0
15.02.2019 11:00:00 12,8 6,2 8 4 NNO 1031,2 20 0,0
15.02.2019 10:00:00 12,1 6,2 4 2 N 1031,1 20 -
15.02.2019 09:00:00 11,2 6,1 4 2 WNW 1030,9 20 0,0
15.02.2019 08:00:00 10,5 6,8 0 0 N 1030,4 18 0,0
15.02.2019 07:00:00 10,9 6,2 5 3 NNW 1030,1 20 -
15.02.2019 06:00:00 11,0 6,5 4 2 WNW 1030,0 20 0,0
15.02.2019 05:00:00 11,0 7,1 0 0 N 1030,1 19 0,0
15.02.2019 04:00:00 11,3 7,4 4 2 O 1030,5 19 -
15.02.2019 03:00:00 11,5 7,2 5 3 NO 1030,9 20 0,0
15.02.2019 02:00:00 11,5 7,4 2 1 NNW 1031,3 19 0,0
15.02.2019 01:00:00 11,5 7,2 2 1 NW 1031,6 18 -
15.02.2019 00:00:00 11,3 7,4 8 4 NNO 1031,8 19 0,0
14.02.2019 23:00:00 11,2 7,5 2 1 NO 1031,9 20 0,0
14.02.2019 22:00:00 10,5 7,6 5 3 NNO 1031,8 17 -
14.02.2019 21:00:00 10,7 7,4 5 3 ONO 1031,7 18 0,0
14.02.2019 20:00:00 11,6 7,7 8 4 ONO 1031,9 19 0,0
14.02.2019 19:00:00 12,9 7,6 9 5 ONO 1031,6 50 -
14.02.2019 18:00:00 14,0 7,3 11 6 O 1031,3 20 0,0
14.02.2019 17:00:00 14,7 7,3 15 8 O 1031,5 19 0,0
14.02.2019 16:00:00 15,0 6,0 15 8 ONO 1031,7 30 -
14.02.2019 15:00:00 15,9 6,3 16 9 ONO 1032,2 20 0,0
14.02.2019 14:00:00 15,5 5,7 15 8 ONO 1032,8 20 0,0
14.02.2019 13:00:00 14,9 5,7 13 7 O 1033,7 30 -
14.02.2019 12:00:00 14,5 5,6 15 8 ONO 1034,6 20 0,0
14.02.2019 11:00:00 13,8 5,9 8 4 O 1034,7 20 0,0
14.02.2019 10:00:00 12,5 5,9 4 2 ONO 1034,5 30 -
14.02.2019 09:00:00 10,0 6,0 2 1 Z 1034,4 18 0,0
14.02.2019 08:00:00 9,2 5,7 2 1 ZZW 1033,9 19 0,0
14.02.2019 07:00:00 9,5 5,7 2 1 N 1033,7 30 -
14.02.2019 06:00:00 10,3 5,5 5 3 NW 1033,4 20 0,0
14.02.2019 05:00:00 10,1 5,5 4 2 WNW 1033,1 20 0,0
14.02.2019 04:00:00 9,7 5,7 2 1 WZW 1032,9 17 -
14.02.2019 03:00:00 10,2 5,8 2 1 ZZW 1033,2 18 0,0
14.02.2019 02:00:00 10,6 5,8 2 1 ZW 1033,3 18 0,0
14.02.2019 01:00:00 10,4 5,4 4 2 W 1033,3 18 -
14.02.2019 00:00:00 10,6 5,6 8 4 NW 1033,3 19 0,0
13.02.2019 23:00:00 10,1 5,9 2 1 Z 1033,3 15 0,0
13.02.2019 22:00:00 8,5 5,2 2 1 NW 1032,9 17 -
13.02.2019 21:00:00 9,1 4,9 4 2 NNO 1032,7 17 0,0
13.02.2019 20:00:00 10,5 5,3 5 3 ONO 1032,2 19 0,0
13.02.2019 19:00:00 12,4 4,6 8 4 ONO 1032,0 15 -
13.02.2019 18:00:00 14,3 4,3 11 6 ONO 1031,4 20 0,0
13.02.2019 17:00:00 15,7 4,1 15 8 O 1031,3 20 0,0
13.02.2019 16:00:00 16,5 5,1 15 8 ONO 1031,0 15 -
13.02.2019 15:00:00 16,3 5,3 9 5 O 1031,3 20 0,0
13.02.2019 14:00:00 15,7 6,7 11 6 ONO 1032,0 10 0,0
13.02.2019 13:00:00 14,9 7,0 5 3 N 1032,7 18 -
13.02.2019 12:00:00 12,5 7,6 4 2 W 1033,4 15 0,0
13.02.2019 11:00:00 10,1 6,2 9 5 WNW 1033,6 17 0,0
13.02.2019 10:00:00 8,0 5,5 5 3 W 1033,4 10 -
13.02.2019 09:00:00 6,0 4,3 4 2 ZW 1033,3 14 0,0
13.02.2019 08:00:00 5,4 3,9 4 2 W 1032,8 15 0,0
13.02.2019 07:00:00 5,3 4,1 5 3 WNW 1032,3 12 -
13.02.2019 06:00:00 4,7 3,7 2 1 WNW 1032,0 13 0,0
13.02.2019 05:00:00 5,3 3,9 2 1 ZW 1032,1 12 0,0
13.02.2019 04:00:00 5,3 4,3 2 1 W 1032,3 9 -
13.02.2019 03:00:00 6,1 4,9 4 2 W 1032,6 8 0,0
13.02.2019 02:00:00 6,0 4,5 0 0 N 1032,9 10 0,0
13.02.2019 01:00:00 7,2 5,5 4 2 WNW 1033,2 10 -
13.02.2019 00:00:00 7,3 5,4 2 1 N 1033,3 11 0,0
12.02.2019 23:00:00 8,5 6,3 2 1 W 1033,6 15 0,0
12.02.2019 22:00:00 9,2 6,6 4 2 N 1033,5 16 -
12.02.2019 21:00:00 10,0 6,9 5 3 NO 1033,3 17 0,0
12.02.2019 20:00:00 11,8 7,1 9 5 ONO 1033,0 19 0,0

tt = temperatuur
td = dauwpunt
ff = windsnelheid
dd = windrichting
ppp = luchtdruk
vv = zicht
rr = neerslag

Weerstations in de omgeving